Tracking 20721 objects as of 1-Jun-2020
HD Live streaming from Space Station
objects crossing your sky now

CZ-2C DEB

Track CZ-2C DEB now!
10-day predictions


NORAD ID: 43534
Int'l Code: 2018-056F
Perigee: 592.5 km
Apogee: 629.3 km
Inclination: 98.0 °
Period: 96.8 minutes
Semi major axis: 6981 km
RCS: Unknown
Launch date: July 9, 2018
Source: People's Republic of China (PRC)
Launch site: Jiuquan Satellite Launch Center, China (JSC)

Note: This is SATELLITE DEBRIS
aabbcc
Your satellite tracking list
Your tracking list is empty




NASA's NSSDC Master Catalog

Two Line Element Set (TLE):
1 43534U 18056F   20151.66633102 +.00000297 +00000-0 +38389-4 0  9998
2 43534 097.9965 239.6955 0026414 172.6668 187.4940 14.88136769102827
Source of the keplerian elements: AFSPC